User: anonymous   Login
Location: Unspecified
(0.0000°N, 0.0000°E)
Time: 00:04:49
(UTC+00:00)
Language:

STARLINK-11434 [DTC] - Orbit

View from above orbital plane
View from above orbital plane
View from above satellite
View from above satellite

Ground track
Ground track

The orbit is defined by the following mean orbital elements,

1 62420U          26145.47071306 +.00000000 +00000-0 +13416-2 0 00000
2 62420  42.9977  65.0755 0002579 285.1605  74.8978 15.70908572    09
Epoch (UTC): 25 May 2026 11:17:49
Eccentricity: 0.0002579
inclination: 42.9977°
perigee height: 355 km
apogee height: 358 km
right ascension of ascending node: 65.0755°
argument of perigee: 285.1605°
revolutions per day: 15.70908572
mean anomaly at epoch: 74.8978°

The dashed part of the orbit path shows where the satellite is in the earth's shadow,  

DLR